Weather History for KAIO - April, 2014

Change the Weather History Date:

Saturday, April 12, 2014

  Actual Average (WUND) Record (WUND)
Temperature  
Mean Temperature 70 °F -  
Max Temperature 84 °F - - (-1)
Min Temperature 57 °F - - (-1)
Cooling Degree Days 6    
Growing Degree Days 20 (Base 50)    
Moisture  
Dew Point 49 °F    
Average Humidity 52    
Maximum Humidity 88    
Minimum Humidity 33    
Precipitation  
Precipitation 0.11 in - - ()
Sea Level Pressure  
Sea Level Pressure 29.64 in    
Wind  
Wind Speed 13 mph (South)    
Max Wind Speed 21 mph    
Max Gust Speed 29 mph    
Visibility 10 miles    
Events Rain    
Averages and records for this station are not official NWS values.
T = Trace of Precipitation, MM = Missing Value Source: NWS Daily Summary

Daily Weather History Graph

Daily Weather History Graph

Search for Another Location

Airport or City:

Trip Planner

Search our weather history database for the weather conditions in past years. The results will help you decide how hot, cold, wet, or windy it might be!

Date:

Astronomy

Apr. 12, 2014 Rise Set
Actual Time 6:45 AM CDT 7:57 PM CDT
Civil Twilight 6:16 AM CDT 8:25 PM CDT
Nautical Twilight 5:42 AM CDT 9:00 PM CDT
Astronomical Twilight 5:06 AM CDT 9:36 PM CDT
Moon 5:35 PM CDT (4/12) 5:14 AM CDT (4/12)
Length of Visible Light 14h 09m
Length of Day
13h 12m
Waxing Gibbous, 93% of the Moon is Illuminated
Apr 12
Waxing Gibbous
Apr 15
Full
Apr 22
Last Quarter
Apr 29
New
May 6
First Quarter

Hourly Weather History & Observations

Time (CDT) Temp. Heat Index Dew Point Humidity Pressure Visibility Wind Dir Wind Speed Gust Speed Precip Events Conditions
12:15 AM 60.8 °F - 32.0 °F 34% 29.85 in 7.0 mi SSE 9.2 mph 16.1 mph N/A   Overcast
12:35 AM 60.8 °F - 32.0 °F 34% 29.84 in 10.0 mi SSE 10.4 mph - N/A   Overcast
12:55 AM 60.8 °F - 33.8 °F 36% 29.83 in 10.0 mi SSE 12.7 mph - N/A   Overcast
1:15 AM 60.8 °F - 33.8 °F 36% 29.82 in 10.0 mi SSE 13.8 mph 20.7 mph N/A   Overcast
1:55 AM 60.8 °F - 33.8 °F 36% 29.79 in 10.0 mi SSE 13.8 mph 20.7 mph N/A   Overcast
2:15 AM 60.8 °F - 33.8 °F 36% 29.78 in 10.0 mi SSE 15.0 mph 20.7 mph N/A   Overcast
2:35 AM 60.8 °F - 33.8 °F 36% 29.77 in 10.0 mi SSE 15.0 mph 23.0 mph N/A   Overcast
2:55 AM 60.8 °F - 33.8 °F 36% 29.75 in 10.0 mi SSE 18.4 mph 26.5 mph N/A   Overcast
3:15 AM 60.8 °F - 33.8 °F 36% 29.75 in 10.0 mi South 13.8 mph 24.2 mph N/A   Overcast
3:35 AM 60.8 °F - 35.6 °F 39% 29.75 in 10.0 mi SSW 12.7 mph - N/A   Overcast
3:55 AM 59.0 °F - 35.6 °F 42% 29.75 in 10.0 mi SSW 10.4 mph - N/A   Overcast
4:15 AM 60.8 °F - 35.6 °F 39% 29.74 in 10.0 mi South 12.7 mph 23.0 mph N/A   Overcast
4:35 AM 60.8 °F - 37.4 °F 42% 29.73 in 10.0 mi South 13.8 mph - N/A   Overcast
4:55 AM 60.8 °F - 39.2 °F 45% 29.73 in 10.0 mi South 13.8 mph - N/A   Overcast
5:15 AM 60.8 °F - 41.0 °F 48% 29.72 in 10.0 mi South 15.0 mph - N/A   Overcast
5:35 AM 59.0 °F - 41.0 °F 51% 29.71 in 10.0 mi South 12.7 mph 19.6 mph N/A   Overcast
5:55 AM 59.0 °F - 41.0 °F 51% 29.70 in 10.0 mi South 13.8 mph 20.7 mph N/A   Scattered Clouds
6:15 AM 59.0 °F - 42.8 °F 55% 29.69 in 10.0 mi South 12.7 mph 20.7 mph N/A   Clear
6:35 AM 59.0 °F - 44.6 °F 59% 29.68 in 10.0 mi South 13.8 mph - N/A   Clear
6:55 AM 57.2 °F - 46.4 °F 67% 29.68 in 10.0 mi South 13.8 mph - N/A   Clear
7:15 AM 57.2 °F - 46.4 °F 67% 29.69 in 10.0 mi South 10.4 mph - N/A   Clear
7:35 AM 57.2 °F - 46.4 °F 67% 29.70 in 10.0 mi South 11.5 mph 17.3 mph N/A   Clear
7:55 AM 59.0 °F - 48.2 °F 67% 29.70 in 10.0 mi South 11.5 mph - N/A   Clear
8:15 AM 59.0 °F - 50.0 °F 72% 29.70 in 9.0 mi South 12.7 mph 18.4 mph N/A   Clear
8:35 AM 60.8 °F - 51.8 °F 72% 29.70 in 8.0 mi South 15.0 mph 20.7 mph N/A   Clear
8:55 AM 62.6 °F - 53.6 °F 72% 29.68 in 7.0 mi South 17.3 mph 28.8 mph N/A   Clear
9:15 AM 64.4 °F - 55.4 °F 73% 29.68 in 8.0 mi South 17.3 mph 28.8 mph N/A   Clear
9:35 AM 66.2 °F - 55.4 °F 68% 29.68 in 8.0 mi South 18.4 mph 27.6 mph N/A   Clear
9:55 AM 68.0 °F - 57.2 °F 68% 29.68 in 8.0 mi South 17.3 mph 24.2 mph N/A   Clear
10:15 AM 69.8 °F - 57.2 °F 64% 29.68 in 9.0 mi SSW 20.7 mph - N/A   Clear
10:35 AM 69.8 °F - 57.2 °F 64% 29.68 in 9.0 mi SSW 17.3 mph 25.3 mph N/A   Clear
10:55 AM 71.6 °F - 57.2 °F 60% 29.68 in 10.0 mi SW 18.4 mph 26.5 mph N/A   Clear
11:15 AM 71.6 °F - 57.2 °F 60% 29.68 in 9.0 mi SW 18.4 mph 27.6 mph N/A   Partly Cloudy
11:35 AM 73.4 °F - 57.2 °F 57% 29.67 in 9.0 mi SW 13.8 mph 24.2 mph N/A   Partly Cloudy
11:55 AM 75.2 °F - 57.2 °F 53% 29.66 in 9.0 mi SW 13.8 mph 25.3 mph N/A   Clear
12:15 PM 77.0 °F - 57.2 °F 50% 29.65 in 10.0 mi SW 19.6 mph - N/A   Clear
12:35 PM 77.0 °F - 57.2 °F 50% 29.64 in 10.0 mi SW 16.1 mph 23.0 mph N/A   Clear
12:55 PM 78.8 °F - 55.4 °F 44% 29.63 in 10.0 mi SSW 15.0 mph 21.9 mph N/A   Clear
1:15 PM 78.8 °F - 55.4 °F 44% 29.61 in 10.0 mi SW 11.5 mph 17.3 mph N/A   Clear
1:35 PM 80.6 °F 80.5 °F 55.4 °F 42% 29.60 in 10.0 mi SSW 17.3 mph - N/A   Clear
1:55 PM 78.8 °F - 55.4 °F 44% 29.59 in 10.0 mi South 10.4 mph 18.4 mph N/A   Clear
2:15 PM 78.8 °F - 53.6 °F 42% 29.58 in 9.0 mi SSW 17.3 mph - N/A   Clear
2:35 PM 78.8 °F - 53.6 °F 42% 29.58 in 10.0 mi SW 11.5 mph - N/A   Clear
2:55 PM 80.6 °F 80.5 °F 55.4 °F 42% 29.57 in 10.0 mi SW 4.6 mph 12.7 mph N/A   Clear
3:15 PM 80.6 °F 80.3 °F 53.6 °F 39% 29.55 in 10.0 mi South 9.2 mph 16.1 mph N/A   Clear
3:35 PM 84.2 °F 82.8 °F 53.6 °F 35% 29.54 in 10.0 mi SSW 11.5 mph 26.5 mph N/A   Clear
3:55 PM 84.2 °F - 51.8 °F 33% 29.53 in 10.0 mi SSW 12.7 mph 20.7 mph N/A   Clear
4:15 PM 84.2 °F - 51.8 °F 33% 29.53 in 10.0 mi South 11.5 mph 19.6 mph N/A   Clear
4:35 PM 84.2 °F 82.8 °F 53.6 °F 35% 29.52 in 10.0 mi SSW 13.8 mph 19.6 mph N/A   Clear
4:55 PM 82.4 °F - 51.8 °F 35% 29.52 in 10.0 mi SSW 19.6 mph - N/A   Clear
5:15 PM 84.2 °F - 51.8 °F 33% 29.52 in 10.0 mi SW 16.1 mph 24.2 mph N/A   Clear
5:35 PM 82.4 °F - 51.8 °F 35% 29.52 in 10.0 mi South 17.3 mph 23.0 mph N/A   Clear
5:55 PM 82.4 °F - 51.8 °F 35% 29.52 in 10.0 mi SSW 15.0 mph 25.3 mph N/A   Clear
6:15 PM 82.4 °F 81.4 °F 53.6 °F 37% 29.52 in 10.0 mi SSW 12.7 mph - N/A   Scattered Clouds
6:35 PM 80.6 °F 80.3 °F 53.6 °F 39% 29.51 in 10.0 mi SSW 6.9 mph 13.8 mph N/A   Overcast
6:55 PM 78.8 °F - 53.6 °F 42% 29.51 in 10.0 mi SSW 5.8 mph - N/A   Scattered Clouds
7:15 PM 78.8 °F - 53.6 °F 42% 29.51 in 10.0 mi South 4.6 mph - N/A   Mostly Cloudy
7:35 PM 77.0 °F - 53.6 °F 44% 29.52 in 10.0 mi South 5.8 mph - N/A   Overcast
7:55 PM 69.8 °F - 59.0 °F 68% 29.54 in 5.0 mi SW 9.2 mph - 0.06 in Rain Rain
8:15 PM 69.8 °F - 60.8 °F 73% 29.53 in 9.0 mi SE 3.5 mph 12.7 mph N/A Rain Light Rain
8:35 PM 68.0 °F - 59.0 °F 73% 29.51 in 9.0 mi SSE 8.1 mph 16.1 mph N/A Rain Light Rain
8:55 PM 68.0 °F - 48.2 °F 49% 29.53 in 7.0 mi SSW 16.1 mph - 0.05 in Rain Light Rain
9:15 PM 66.2 °F - 53.6 °F 64% 29.55 in 8.0 mi SW 13.8 mph 27.6 mph N/A Rain Light Rain
9:35 PM 64.4 °F - 53.6 °F 68% 29.50 in 10.0 mi South 9.2 mph - N/A   Mostly Cloudy
9:55 PM 62.6 °F - 53.6 °F 72% 29.53 in 10.0 mi Calm Calm 13.8 mph N/A   Scattered Clouds
10:15 PM 66.2 °F - 51.8 °F 60% 29.56 in 10.0 mi Variable 4.6 mph - N/A   Mostly Cloudy
10:35 PM 64.4 °F - 53.6 °F 68% 29.57 in 10.0 mi Calm Calm - N/A   Overcast
10:55 PM 64.4 °F - 55.4 °F 73% 29.57 in 10.0 mi ESE 5.8 mph - N/A   Overcast
11:15 PM 62.6 °F - 53.6 °F 72% 29.56 in 10.0 mi NNE 5.8 mph - N/A   Overcast
11:35 PM 60.8 °F - 53.6 °F 77% 29.54 in 10.0 mi NNE 5.8 mph - N/A   Overcast
11:55 PM 59.0 °F - 55.4 °F 88% 29.55 in 10.0 mi North 9.2 mph - N/A   Mostly Cloudy